Location: O'Brien
(30.0517°N, 82.9900°W)
Time: 15:33:38
(UTC-05:00)

Tiangong 2 - Visible Passes

Search period start: 16 November 2018 00:00
Search period end: 26 November 2018 00:00
Orbit: 382 x 393 km, 42.8° (Epoch: 16 November)

Date Brightness Start Highest point End Pass type
(mag) Time Alt. Az. Time Alt. Az. Time Alt. Az.
21 Nov 4.1 06:16:08 10° S 06:18:25 18° SE 06:20:42 10° E visible
23 Nov 2.4 05:54:51 10° SW 05:57:52 41° SE 06:00:54 10° ENE visible
24 Nov 3.8 04:59:50 19° SE 04:59:50 19° SE 05:01:46 10° E visible
24 Nov 1.7 06:33:00 10° W 06:36:01 39° NNW 06:39:04 10° NE visible
25 Nov 0.9 05:37:18 80° WNW 05:37:22 82° NW 05:40:35 10° NE visible
